Tracking 19288 objects as of 20-Nov-2018
HD Live streaming from Space Station
objects crossing your sky now

COSMOS 2110 (GLONASS)

Track COSMOS 2110 (GLONASS) now!
COSMOS 2110 (GLONASS) is classified as:


NORAD ID: 21007
Int'l Code: 1990-110B
Perigee: 19,022.2 km
Apogee: 19,252.0 km
Inclination: 64.1 °
Period: 675.7 minutes
Semi major axis: 25508 km
RCS: 1.5445 m2 (large)
Launch date: December 8, 1990
Source: Commonwealth of Independent States (former USSR) (CIS)
Launch site: TYURATAM MISSILE AND SPACE COMPLEX (TTMTR)
SV:
aabbcc
Your satellite tracking list
Your tracking list is empty




NASA's NSSDC Master Catalog

Two Line Element Set (TLE):
1 21007U 90110B   18323.90088845 +.00000118 +00000-0 +00000-0 0  9990
2 21007 064.1283 166.5813 0045041 192.1582 091.8441 02.13101107217517
Source of the keplerian elements: AFSPC